Showing default

TIANHUI 2-01A, 44207

Orbit data source: Space-Track

TIANHUI 2-01A, 44207 is a payload satellite owned by G. Cehui dili (CN) in SSO that was launched on Mon, 29 Apr 2019 UTC via a CHANG ZHENG 4B launch vehicle from the Taiyaun Space Center, China (TSC). Payloads include a variety of satellites, spacecraft, and rockets equipped with specific instruments for various scientific and technological missions. These include communications satellites like Starlink; space stations such as the ISS; scientific satellites like the Hubble; Earth observation satellites from companies like Planet Labs, Umbra, and HawkEye 360; GPS; miniature CubeSats for education and research; and military/defense satellites.

Loading next visibility...
TIANHUI 2-01A details
Identifier
44207, 2019-024A
Orbit
SSO
Last TLE update2 days ago
Origin
Flag of CNG. Cehui dili (CN / PRC)
ManufacturerSAST
MissionOperational Civil Radar Imaging
Bus & MotorCAST-2000?, Unknown motor
Mass~1,000 kg wet, ~1,000 kg dry
Launch date (UTC)
2019-04-29 (6 years ago)
Launch vehicle
CHANG ZHENG 4B
Launch site
Taiyaun Space Center, China (TSC)
Object type
Payload
Rocket body
Debris
Shape & HBRBox + 2 Pan, 3 m
Radar Cross Section2.045 m², Large (>1 m²)

Expand to show TLE details & history

TLE from 2 days ago
0 TIANHUI 2-01A
1 44207U 19024A   24359.44001628  .00004421  00000-0  22869-3 0  9992
2 44207  97.4735 359.8101 0001769  99.8961 260.2472 15.16760201 20325
Epoch: 2024-12-24T10:33Z
Definitive object data (Epoch: 2024-12-24T10:33:37.406Z)
Latitude-0.00002°
Longitude107.95616°
Altitude518.931 km
Speed7.604 km/s
True Right ascension23h 59m 14s
True Declination0° 00' 00"
Sunlit
Object was in daylight at TLE epoch
Visualization TLE readout
Latitude-68.82927°
Longitude129.97024°
Altitude542.602 km
Speed7.589 km/s
Apparent Right ascension05h 00m 45s
Apparent Declination-60° 24' 55"
Sunlit
Object is in daylight
Visualization observer readout
Local Sidereal Time18:37:43
Azimuth151.807° SSE
Elevation-64.594°
Doppler factor1
Orbital elements
Apogee altitude513.832 km
Perigee altitude511.394 km
Semi-major axis6,890.75 km
Eccentricity0.0001769
Inclination97.4735°
RAAN359.8101°
Arg. of periapsis99.8961°
True anomaly260.22722°
Mean anomaly260.2472°
Eccentric anomaly260.23721°
Mean motion3.7944 °/min
BSTAR0.00022869
Orbital period94.88 mins
Loading maneuver chart data...
Loading historical data...
Loading historical data...
Loading historical data...
Loading historical data...
Loading historical data...
Loading historical data...
Loading historical data...

TIANHUI 2-01A Visibility forecast

Observer location: undefined°, undefined

Span
Click to sort rows by Start time (UTC) header in descending order
Start Az.
Max El. time (UTC)
Max El. Az.
Max El.
End time (UTC)
End Az.
6 mins2024-12-27 00:26:05.265Z175.977° S2024-12-27 00:29:05.265Z256.823° W43.163°2024-12-27 00:32:05.265Z341.477° N
5 mins2024-12-27 13:33:05.265Z345.684° N2024-12-27 13:35:05.265Z285.855° WNW33.964°2024-12-27 13:38:05.265Z217.923° SW
|